BEIDOU-3 M11 (C25)

Last updated on Sun Jun 21 2026 00:03:32 GMT+0000 (Coordinated Universal Time)

1 43603U 18067B 26171.26578027 .00000068 00000+0 00000+0 0 9994 2 43603 54.1780 180.8993 0004517 12.7566 347.2746 1.86227129 53206
UTC large
Height (km)
Speed (km/s)
/
Latitude / Longitude
Inclination (degrees)
Orbital Period (minutes)
Azimuth
Elevation
Range (km)
Doppler Factor

Next 0 passes for location: London (51.5072 / 0.1276)

No passes found over London.
BEIDOU-3 M11 (C25)